Time,TemperatureF,DewpointF,PressureIn,WindDirection,WindDirectionDegrees,WindSpeedMPH,WindSpeedGustMPH,Humidity,HourlyPrecipIn,Conditions,Clouds,dailyrainin,SolarRadiationWatts/m^2,SoftwareType,DateUTC
2013-09-06 00:02:00,53.0,51.0,-100.00,SW,223,2.0,7.0,94,0.00,,,0.00,0.000000,,2013-09-06 05:02:00,
2013-09-06 00:23:00,53.0,51.0,-100.00,SW,223,2.0,7.0,94,0.00,,,0.00,0.000000,,2013-09-06 05:23:00,
2013-09-06 00:34:00,53.0,51.0,-100.00,SW,223,2.0,7.0,94,0.00,,,0.00,0.000000,,2013-09-06 05:34:00,
2013-09-06 00:43:00,53.0,51.0,-100.00,SW,223,2.0,7.0,94,0.00,,,0.00,0.000000,,2013-09-06 05:43:00,
2013-09-06 00:52:00,53.0,51.0,-100.00,SW,223,2.0,7.0,94,0.00,,,0.00,0.000000,,2013-09-06 05:52:00,
2013-09-06 01:22:00,52.0,50.0,-100.00,SW,227,4.0,7.0,93,0.00,,,0.00,0.000000,,2013-09-06 06:22:00,
2013-09-06 01:32:00,52.0,50.0,-100.00,SW,227,4.0,7.0,93,0.00,,,0.00,0.000000,,2013-09-06 06:32:00,
2013-09-06 01:42:00,52.0,50.0,-100.00,SW,227,4.0,7.0,93,0.00,,,0.00,0.000000,,2013-09-06 06:42:00,
2013-09-06 01:53:00,52.0,50.0,-100.00,SW,227,4.0,7.0,93,0.00,,,0.00,0.000000,,2013-09-06 06:53:00,
2013-09-06 02:01:00,52.0,50.0,-100.00,SW,227,4.0,7.0,93,0.00,,,0.00,0.000000,,2013-09-06 07:01:00,
2013-09-06 02:02:00,53.0,50.0,-100.00,SW,219,4.0,10.0,91,0.00,,,0.00,0.000000,,2013-09-06 07:02:00,
2013-09-06 02:23:00,53.0,50.0,-100.00,SW,219,4.0,10.0,91,0.00,,,0.00,0.000000,,2013-09-06 07:23:00,
2013-09-06 02:32:00,53.0,50.0,-100.00,SW,219,4.0,10.0,91,0.00,,,0.00,0.000000,,2013-09-06 07:32:00,
2013-09-06 02:42:00,53.0,50.0,-100.00,SW,219,4.0,10.0,91,0.00,,,0.00,0.000000,,2013-09-06 07:42:00,
2013-09-06 02:52:00,53.0,50.0,-100.00,SW,219,4.0,10.0,91,0.00,,,0.00,0.000000,,2013-09-06 07:52:00,
2013-09-06 03:02:00,52.0,51.0,-100.00,SW,218,4.0,8.0,95,0.00,,,0.00,0.000000,,2013-09-06 08:02:00,
2013-09-06 03:22:00,52.0,51.0,-100.00,SW,218,4.0,8.0,95,0.00,,,0.00,0.000000,,2013-09-06 08:22:00,
2013-09-06 03:32:00,52.0,51.0,-100.00,SW,218,4.0,8.0,95,0.00,,,0.00,0.000000,,2013-09-06 08:32:00,
2013-09-06 03:42:00,52.0,51.0,-100.00,SW,218,4.0,8.0,95,0.00,,,0.00,0.000000,,2013-09-06 08:42:00,
2013-09-06 03:52:00,52.0,51.0,-100.00,SW,218,4.0,8.0,95,0.00,,,0.00,0.000000,,2013-09-06 08:52:00,
2013-09-06 04:02:00,52.0,50.0,-100.00,SW,229,5.0,9.0,94,0.00,,,0.00,0.000000,,2013-09-06 09:02:00,
2013-09-06 04:43:00,52.0,50.0,-100.00,SW,229,5.0,9.0,94,0.00,,,0.00,0.000000,,2013-09-06 09:43:00,
2013-09-06 04:54:00,52.0,50.0,-100.00,SW,229,5.0,9.0,94,0.00,,,0.00,0.000000,,2013-09-06 09:54:00,
2013-09-06 05:02:00,52.0,51.0,-100.00,SW,234,4.0,11.0,95,0.00,,,0.00,0.000000,,2013-09-06 10:02:00,
2013-09-06 05:43:00,52.0,51.0,-100.00,SW,234,4.0,11.0,95,0.00,,,0.00,0.000000,,2013-09-06 10:43:00,
2013-09-06 05:53:00,52.0,51.0,-100.00,SW,234,4.0,11.0,95,0.00,,,0.00,0.000000,,2013-09-06 10:53:00,
2013-09-06 06:02:00,51.0,50.0,-100.00,SW,235,3.0,7.0,97,0.00,,,0.00,0.000000,,2013-09-06 11:02:00,
2013-09-06 06:22:00,51.0,50.0,-100.00,SW,235,3.0,7.0,97,0.00,,,0.00,0.000000,,2013-09-06 11:22:00,
2013-09-06 06:33:00,51.0,50.0,-100.00,SW,235,3.0,7.0,97,0.00,,,0.00,0.000000,,2013-09-06 11:33:00,
2013-09-06 06:42:00,51.0,50.0,-100.00,SW,235,3.0,7.0,97,0.00,,,0.00,0.000000,,2013-09-06 11:42:00,
2013-09-06 06:52:00,51.0,50.0,-100.00,SW,235,3.0,7.0,97,0.00,,,0.00,0.000000,,2013-09-06 11:52:00,
2013-09-06 07:02:00,52.0,51.0,-100.00,SW,233,3.0,8.0,95,0.00,,,0.00,10.000000,,2013-09-06 12:02:00,
2013-09-06 07:22:00,52.0,51.0,-100.00,SW,233,3.0,8.0,95,0.00,,,0.00,10.000000,,2013-09-06 12:22:00,
2013-09-06 07:32:00,52.0,51.0,-100.00,SW,233,3.0,8.0,95,0.00,,,0.00,10.000000,,2013-09-06 12:32:00,
2013-09-06 07:42:00,52.0,51.0,-100.00,SW,233,3.0,8.0,95,0.00,,,0.00,10.000000,,2013-09-06 12:42:00,
2013-09-06 07:52:00,52.0,51.0,-100.00,SW,233,3.0,8.0,95,0.00,,,0.00,10.000000,,2013-09-06 12:52:00,
2013-09-06 08:02:00,58.0,54.0,-100.00,SW,230,3.0,9.0,87,0.00,,,0.00,145.000000,,2013-09-06 13:02:00,
2013-09-06 08:42:00,58.0,54.0,-100.00,SW,230,3.0,9.0,87,0.00,,,0.00,145.000000,,2013-09-06 13:42:00,
2013-09-06 08:52:00,58.0,54.0,-100.00,SW,230,3.0,9.0,87,0.00,,,0.00,145.000000,,2013-09-06 13:52:00,
2013-09-06 09:42:00,60.0,56.0,-100.00,SW,228,4.0,8.0,86,0.00,,,0.00,142.000000,,2013-09-06 14:42:00,
2013-09-06 09:52:00,60.0,56.0,-100.00,SW,228,4.0,8.0,86,0.00,,,0.00,142.000000,,2013-09-06 14:52:00,
2013-09-06 10:01:00,60.0,56.0,-100.00,SW,228,4.0,8.0,86,0.00,,,0.00,142.000000,,2013-09-06 15:01:00,
2013-09-06 10:02:00,65.0,59.0,-100.00,SW,232,5.0,9.0,80,0.00,,,0.00,303.000000,,2013-09-06 15:02:00,
2013-09-06 10:22:00,65.0,59.0,-100.00,SW,232,5.0,9.0,80,0.00,,,0.00,303.000000,,2013-09-06 15:22:00,
2013-09-06 10:34:00,65.0,59.0,-100.00,SW,232,5.0,9.0,80,0.00,,,0.00,303.000000,,2013-09-06 15:34:00,
2013-09-06 10:43:00,65.0,59.0,-100.00,SW,232,5.0,9.0,80,0.00,,,0.00,303.000000,,2013-09-06 15:43:00,
2013-09-06 10:53:00,65.0,59.0,-100.00,SW,232,5.0,9.0,80,0.00,,,0.00,303.000000,,2013-09-06 15:53:00,
2013-09-06 11:02:00,69.0,61.0,-100.00,SW,229,4.0,10.0,77,0.00,,,0.00,361.000000,,2013-09-06 16:02:00,
2013-09-06 11:43:00,69.0,61.0,-100.00,SW,229,4.0,10.0,77,0.00,,,0.00,361.000000,,2013-09-06 16:43:00,
2013-09-06 11:53:00,69.0,61.0,-100.00,SW,229,4.0,10.0,77,0.00,,,0.00,361.000000,,2013-09-06 16:53:00,
2013-09-06 12:02:00,77.0,66.0,-100.00,SW,235,5.0,10.0,68,0.00,,,0.00,673.000000,,2013-09-06 17:02:00,
2013-09-06 12:24:00,77.0,66.0,-100.00,SW,235,5.0,10.0,68,0.00,,,0.00,673.000000,,2013-09-06 17:24:00,
2013-09-06 12:34:00,77.0,66.0,-100.00,SW,235,5.0,10.0,68,0.00,,,0.00,673.000000,,2013-09-06 17:34:00,
2013-09-06 12:43:00,77.0,66.0,-100.00,SW,235,5.0,10.0,68,0.00,,,0.00,673.000000,,2013-09-06 17:43:00,
2013-09-06 12:53:00,77.0,66.0,-100.00,SW,235,5.0,10.0,68,0.00,,,0.00,673.000000,,2013-09-06 17:53:00,
2013-09-06 13:02:00,77.0,65.0,-100.00,SSW,211,4.0,10.0,67,0.00,,,0.00,501.000000,,2013-09-06 18:02:00,
2013-09-06 13:42:00,77.0,65.0,-100.00,SSW,211,4.0,10.0,67,0.00,,,0.00,501.000000,,2013-09-06 18:42:00,
2013-09-06 13:52:00,77.0,65.0,-100.00,SSW,211,4.0,10.0,67,0.00,,,0.00,501.000000,,2013-09-06 18:52:00,
2013-09-06 14:02:00,72.0,67.0,-100.00,South,179,1.0,10.0,84,0.00,,,0.00,164.000000,,2013-09-06 19:02:00,
2013-09-06 14:43:00,72.0,67.0,-100.00,South,179,1.0,10.0,84,0.00,,,0.00,164.000000,,2013-09-06 19:43:00,
2013-09-06 14:52:00,72.0,67.0,-100.00,South,179,1.0,10.0,84,0.00,,,0.00,164.000000,,2013-09-06 19:52:00,
2013-09-06 15:23:00,74.0,68.0,-100.00,South,174,2.0,4.0,82,0.00,,,-99.99,160.000000,,2013-09-06 20:23:00,
2013-09-06 15:32:00,74.0,68.0,-100.00,South,174,2.0,4.0,82,0.00,,,-99.99,160.000000,,2013-09-06 20:32:00,
2013-09-06 15:42:00,74.0,68.0,-100.00,South,174,2.0,4.0,82,0.00,,,-99.99,160.000000,,2013-09-06 20:42:00,
2013-09-06 15:52:00,74.0,68.0,-100.00,South,174,2.0,4.0,82,0.00,,,-99.99,160.000000,,2013-09-06 20:52:00,
2013-09-06 16:01:00,74.0,68.0,-100.00,South,174,2.0,4.0,82,0.00,,,-99.99,160.000000,,2013-09-06 21:01:00,
2013-09-06 16:02:00,75.0,68.0,-100.00,South,191,3.0,9.0,79,0.00,,,0.00,166.000000,,2013-09-06 21:02:00,
2013-09-06 16:43:00,75.0,68.0,-100.00,South,191,3.0,9.0,79,0.00,,,0.00,166.000000,,2013-09-06 21:43:00,
2013-09-06 16:54:00,75.0,68.0,-100.00,South,191,3.0,9.0,79,0.00,,,0.00,166.000000,,2013-09-06 21:54:00,
2013-09-06 17:02:00,80.0,68.0,-100.00,SW,231,6.0,11.0,67,0.00,,,0.00,403.000000,,2013-09-06 22:02:00,
2013-09-06 17:44:00,80.0,68.0,-100.00,SW,231,6.0,11.0,67,0.00,,,0.00,403.000000,,2013-09-06 22:44:00,
2013-09-06 17:54:00,80.0,68.0,-100.00,SW,231,6.0,11.0,67,0.00,,,0.00,403.000000,,2013-09-06 22:54:00,
2013-09-06 18:43:00,75.0,67.0,-100.00,SW,230,5.0,15.0,75,0.00,,,0.00,180.000000,,2013-09-06 23:43:00,
2013-09-06 18:52:00,75.0,67.0,-100.00,SW,230,5.0,15.0,75,0.00,,,0.00,180.000000,,2013-09-06 23:52:00,
2013-09-06 19:01:00,75.0,67.0,-100.00,SW,230,5.0,15.0,75,0.00,,,0.00,180.000000,,2013-09-07 00:01:00,
2013-09-06 19:02:00,73.0,66.0,-100.00,WSW,241,4.0,9.0,80,0.00,,,0.00,70.000000,,2013-09-07 00:02:00,
2013-09-06 19:22:00,73.0,66.0,-100.00,WSW,241,4.0,9.0,80,0.00,,,0.00,70.000000,,2013-09-07 00:22:00,
2013-09-06 19:32:00,73.0,66.0,-100.00,WSW,241,4.0,9.0,80,0.00,,,0.00,70.000000,,2013-09-07 00:32:00,
2013-09-06 19:42:00,73.0,66.0,-100.00,WSW,241,4.0,9.0,80,0.00,,,0.00,70.000000,,2013-09-07 00:42:00,
2013-09-06 19:52:00,73.0,66.0,-100.00,WSW,241,4.0,9.0,80,0.00,,,0.00,70.000000,,2013-09-07 00:52:00,
2013-09-06 20:02:00,70.0,66.0,-100.00,SSW,201,2.0,7.0,87,0.00,,,0.00,5.000000,,2013-09-07 01:02:00,
2013-09-06 20:42:00,70.0,66.0,-100.00,SSW,201,2.0,7.0,87,0.00,,,0.00,5.000000,,2013-09-07 01:42:00,
2013-09-06 20:53:00,70.0,66.0,-100.00,SSW,201,2.0,7.0,87,0.00,,,0.00,5.000000,,2013-09-07 01:53:00,
2013-09-06 21:02:00,69.0,66.0,-100.00,SW,234,3.0,6.0,90,0.00,,,0.00,0.000000,,2013-09-07 02:02:00,
2013-09-06 21:43:00,69.0,66.0,-100.00,SW,234,3.0,6.0,90,0.00,,,0.00,0.000000,,2013-09-07 02:43:00,
2013-09-06 21:52:00,69.0,66.0,-100.00,SW,234,3.0,6.0,90,0.00,,,0.00,0.000000,,2013-09-07 02:52:00,
2013-09-06 22:02:00,70.0,66.0,-100.00,SW,235,4.0,6.0,87,0.00,,,0.00,0.000000,,2013-09-07 03:02:00,
2013-09-06 22:23:00,70.0,66.0,-100.00,SW,235,4.0,6.0,87,0.00,,,0.00,0.000000,,2013-09-07 03:23:00,
2013-09-06 22:34:00,70.0,66.0,-100.00,SW,235,4.0,6.0,87,0.00,,,0.00,0.000000,,2013-09-07 03:34:00,
2013-09-06 22:45:00,70.0,66.0,-100.00,SW,235,4.0,6.0,87,0.00,,,0.00,0.000000,,2013-09-07 03:45:00,
2013-09-06 22:55:00,70.0,66.0,-100.00,SW,235,4.0,6.0,87,0.00,,,0.00,0.000000,,2013-09-07 03:55:00,
2013-09-06 23:02:00,70.0,66.0,-100.00,WSW,239,5.0,9.0,86,0.00,,,0.00,0.000000,,2013-09-07 04:02:00,
2013-09-06 23:24:00,70.0,66.0,-100.00,WSW,239,5.0,9.0,86,0.00,,,0.00,0.000000,,2013-09-07 04:24:00,
2013-09-06 23:34:00,70.0,66.0,-100.00,WSW,239,5.0,9.0,86,0.00,,,0.00,0.000000,,2013-09-07 04:34:00,
2013-09-06 23:43:00,70.0,66.0,-100.00,WSW,239,5.0,9.0,86,0.00,,,0.00,0.000000,,2013-09-07 04:43:00,
2013-09-06 23:54:00,70.0,66.0,-100.00,WSW,239,5.0,9.0,86,0.00,,,0.00,0.000000,,2013-09-07 04:54:00,